This is the latest recevied weather packets stored in our database for station/object EA7RX-4. If no packets are shown the sender has not sent any weather packets the latest 10 day(s).
| Time | Temp. | Humidity | Pressure | Rain* | Wind** | Luminosity | Snow |
|---|---|---|---|---|---|---|---|
| 1788081603 | 23.33° C | 33% | 1018.8 hPa | 0 mm | - | 593 W/m² | - |
| 1788081003 | 23.33° C | 33% | 1018.7 hPa | 0 mm | - | 559 W/m² | - |
| 1788080403 | 22.78° C | 33% | 1018.8 hPa | 0 mm | - | 522 W/m² | - |
| 1788079803 | 23.33° C | 33% | 1018.8 hPa | 0 mm | - | 485 W/m² | - |
| 1788079203 | 22.78° C | 33% | 1018.7 hPa | 0 mm | - | 450 W/m² | - |
| 1788078603 | 22.22° C | 33% | 1018.6 hPa | 0 mm | - | 410 W/m² | - |
| 1788078003 | 22.22° C | 34% | 1018.8 hPa | 0 mm | - | 371 W/m² | - |
| 1788077403 | 22.22° C | 33% | 1018.8 hPa | 0 mm | - | 49 W/m² | - |
| 1788076803 | 21.67° C | 34% | 1018.7 hPa | 0 mm | - | 287 W/m² | - |
| 1788076203 | 21.11° C | 35% | 1018.5 hPa | 0 mm | - | 46 W/m² | - |
| 1788075603 | 20.56° C | 35% | 1018.3 hPa | 0 mm | - | 242 W/m² | - |
| 1788075003 | 20° C | 36% | 1018.3 hPa | 0 mm | - | 214 W/m² | - |
| 1788074403 | 19.44° C | 37% | 1018.6 hPa | 0 mm | - | 186 W/m² | - |
| 1788073803 | 18.89° C | 38% | 1018.3 hPa | 0 mm | - | 156 W/m² | - |
| 1788073203 | 18.33° C | 39% | 1018.3 hPa | 0 mm | - | 127 W/m² | - |
| 1788072603 | 17.78° C | 40% | 1018.5 hPa | 0 mm | - | 99 W/m² | - |
| 1788072003 | 17.22° C | 41% | 1018.6 hPa | 0 mm | - | 74 W/m² | - |
| 1788071403 | 16.67° C | 41% | 1018 hPa | 0 mm | - | 54 W/m² | - |
| 1788070803 | 16.67° C | 41% | 1018.1 hPa | 0 mm | - | 36 W/m² | - |
| 1788070203 | 16.67° C | 41% | 1018.1 hPa | 0 mm | - | 27 W/m² | - |
| 1788069603 | 16.11° C | 41% | 1018 hPa | 0 mm | - | 18 W/m² | - |
| 1788069003 | 15.56° C | 42% | 1018.1 hPa | 0 mm | - | 10 W/m² | - |
| 1788068403 | 15.56° C | 43% | 1017.8 hPa | 0 mm | - | 4 W/m² | - |
| 1788067803 | 15° C | 44% | 1017.8 hPa | 0 mm | - | 1 W/m² | - |
| 1788067203 | 15° C | 44% | 1017.7 hPa | 0 mm | - | 0 W/m² | - |
* Rain latest hour (hover to see other rain measurements)
** Current wind speed in m/s (hover to see current wind gust speed)